TimePDT,TemperatureF,Dew PointF,Humidity,Sea Level PressureIn,VisibilityMPH,Wind Direction,Wind SpeedMPH,Gust SpeedMPH,PrecipitationIn,Events,Conditions,WindDirDegrees,DateUTC
12:56 AM,51.1,46.9,86,30.12,10.0,SSE,5.8,-,N/A,,Partly Cloudy,150,2014-04-03 07:56:00
1:56 AM,48.9,45.0,86,30.11,10.0,West,3.5,-,N/A,,Scattered Clouds,280,2014-04-03 08:56:00
2:56 AM,50.0,45.0,83,30.10,10.0,WSW,3.5,-,N/A,,Scattered Clouds,240,2014-04-03 09:56:00
3:56 AM,50.0,46.0,86,30.10,10.0,Calm,Calm,-,N/A,,Scattered Clouds,0,2014-04-03 10:56:00
4:56 AM,50.0,46.0,86,30.10,10.0,South,3.5,-,N/A,,Mostly Cloudy,190,2014-04-03 11:56:00
5:56 AM,50.0,46.0,86,30.10,10.0,SSE,5.8,-,N/A,,Mostly Cloudy,150,2014-04-03 12:56:00
6:56 AM,50.0,46.0,86,30.11,10.0,South,4.6,-,N/A,,Overcast,170,2014-04-03 13:56:00
7:56 AM,50.0,45.0,83,30.12,10.0,Calm,Calm,-,N/A,,Overcast,0,2014-04-03 14:56:00
8:56 AM,53.1,46.0,77,30.12,10.0,SE,3.5,-,N/A,,Mostly Cloudy,130,2014-04-03 15:56:00
9:56 AM,54.0,48.0,80,30.13,10.0,East,3.5,-,N/A,,Mostly Cloudy,80,2014-04-03 16:56:00
10:56 AM,55.9,48.9,77,30.12,10.0,ENE,5.8,-,N/A,,Mostly Cloudy,60,2014-04-03 17:56:00
11:56 AM,57.0,48.9,74,30.12,10.0,ENE,6.9,-,N/A,,Mostly Cloudy,60,2014-04-03 18:56:00
12:56 PM,60.1,51.1,72,30.11,10.0,NE,5.8,-,N/A,,Mostly Cloudy,40,2014-04-03 19:56:00
1:56 PM,59.0,46.9,64,30.10,10.0,SSW,9.2,20.7,N/A,,Mostly Cloudy,200,2014-04-03 20:56:00
2:56 PM,60.1,48.0,64,30.09,10.0,WNW,11.5,-,N/A,,Mostly Cloudy,290,2014-04-03 21:56:00
3:56 PM,63.0,43.0,48,30.07,10.0,WSW,12.7,-,N/A,,Mostly Cloudy,250,2014-04-03 22:56:00
4:56 PM,62.1,42.1,48,30.05,10.0,West,8.1,16.1,N/A,,Mostly Cloudy,260,2014-04-03 23:56:00
5:56 PM,60.1,43.0,53,30.05,10.0,WSW,8.1,-,N/A,,Mostly Cloudy,250,2014-04-04 00:56:00
6:56 PM,57.9,44.1,60,30.05,10.0,SW,10.4,-,N/A,,Mostly Cloudy,230,2014-04-04 01:56:00
8:56 PM,55.4,46.4,72,30.05,10.0,Calm,Calm,-,N/A,,Mostly Cloudy,0,2014-04-04 03:56:00
9:56 PM,55.9,46.0,69,30.06,10.0,SSE,6.9,-,N/A,,Mostly Cloudy,160,2014-04-04 04:56:00
10:56 PM,55.0,46.0,72,30.06,10.0,South,9.2,-,N/A,,Mostly Cloudy,180,2014-04-04 05:56:00
11:56 PM,55.0,46.0,72,30.05,10.0,South,6.9,-,N/A,,Mostly Cloudy,180,2014-04-04 06:56:00